Theta_e
352 351 351 350 351 348 343 339 319 327 325 320 321 325 320 334 335 332 332 337 333 341 342 340 340 339 333 331 333 334 333 330 334 322 321 340 356 354 356 358 357 356 357 357 363 363 362 364 364 365 366 366 366 365 365 365 365 364 364 364 364 364 364 364 364 364 363 363 363 363 363 362 362 362 362 362 361 362 361 361 360 360 361 360 359 359 360 359 361 361 362 362 362 361 361 361 361
350 351 350 350 346 344 332 336 325 324 324 322 321 326 330 334 334 329 330 334 337 340 342 341 340 340 339 337 337 337 336 339 339 339 343 350 355 355 356 356 357 355 357 358 360 361 361 366 365 365 366 365 365 365 365 365 364 364 365 365 365 364 365 365 364 364 363 363 363 364 362 363 363 362 361 361 362 361 361 361 361 361 361 361 361 361 362 361 361 359 361 362 360 360 361 360 361
350 350 348 349 344 343 338 333 316 321 318 317 322 326 333 330 330 331 335 337 343 342 341 340 341 340 338 336 334 333 330 342 341 342 344 350 345 351 356 357 357 357 358 358 358 359 361 365 365 366 365 365 365 365 365 365 365 366 365 364 364 364 364 364 363 364 363 363 362 362 361 362 362 362 360 362 361 361 361 361 360 360 360 360 358 359 363 362 362 360 361 361 360 360 360 361 361
351 350 345 345 334 340 330 327 324 323 319 320 321 328 331 331 331 335 338 342 342 340 340 338 338 342 337 331 334 340 336 337 342 342 343 345 347 353 356 356 359 357 357 356 356 357 361 366 365 366 364 365 364 365 366 366 365 365 364 364 364 363 363 363 365 364 363 362 363 362 362 362 362 361 361 362 361 361 361 360 361 360 361 360 361 359 361 361 361 360 360 361 361 360 359 360 359
349 349 348 341 337 329 329 328 327 326 321 323 321 329 331 334 335 338 341 343 341 340 339 339 337 344 346 339 338 332 335 341 342 346 344 349 354 355 356 357 357 356 355 355 356 358 362 365 366 364 364 364 364 365 365 365 364 364 364 364 364 363 363 364 363 363 363 363 363 363 363 363 362 361 361 361 362 361 361 361 360 359 360 359 360 361 361 361 361 361 361 360 360 359 359 360 359
348 346 349 347 334 343 335 326 325 323 327 330 326 329 335 337 336 338 339 341 341 341 341 338 336 336 336 339 343 338 342 334 343 345 347 349 353 356 356 356 355 354 355 356 356 358 362 366 365 363 363 364 365 365 365 364 364 363 364 363 364 364 364 363 363 363 363 362 362 363 363 363 362 361 360 362 361 362 362 361 362 361 361 362 362 361 361 361 362 361 360 360 360 360 361 361 360
344 343 341 341 338 341 325 325 323 325 328 333 330 333 337 337 338 339 339 339 342 342 343 339 339 338 333 339 342 345 349 346 341 343 350 350 354 356 355 354 354 354 355 356 356 358 363 365 365 364 363 364 365 365 364 364 364 364 364 364 364 364 364 363 363 363 362 362 362 363 363 362 362 362 360 361 361 362 362 362 363 360 362 362 363 362 360 360 360 360 360 360 360 360 359 359 359
351 341 339 333 331 333 326 325 325 328 328 334 335 335 339 339 340 340 338 337 335 336 338 340 340 337 336 343 335 345 348 347 345 348 352 352 354 356 354 353 352 352 353 356 356 360 369 365 364 363 363 364 365 365 365 364 365 365 365 364 363 364 363 362 362 362 362 363 363 363 364 363 362 362 362 361 361 362 362 362 362 361 361 361 361 361 361 362 361 361 362 360 360 361 360 361 360
345 343 346 337 329 332 326 325 326 329 331 334 336 339 343 344 343 341 338 339 338 340 338 338 340 333 336 338 338 345 346 347 347 350 351 352 353 354 353 352 351 351 353 355 356 358 364 366 364 363 363 364 365 365 364 364 365 365 365 364 364 364 363 362 361 362 362 363 364 362 363 362 361 362 362 362 362 363 362 361 361 361 361 361 361 362 361 361 361 360 360 361 361 360 360 360 360
342 342 333 333 331 324 323 324 325 328 332 334 338 340 343 344 342 342 338 336 338 339 339 341 340 334 339 334 336 340 343 347 347 349 351 352 353 356 354 353 352 351 351 353 354 354 360 368 364 363 363 363 364 364 363 363 362 362 363 363 363 363 363 363 363 363 363 363 363 362 362 362 362 362 362 362 363 363 362 361 362 361 361 361 360 361 361 361 361 360 361 361 361 360 359 359 359
335 342 343 331 325 322 321 322 326 330 332 337 340 343 342 343 342 339 339 338 340 337 339 341 336 338 338 337 340 349 348 346 346 346 350 351 354 356 354 355 353 352 351 351 352 354 358 363 366 364 363 363 364 364 364 364 363 363 363 364 365 363 362 364 363 361 363 361 361 362 362 362 363 362 363 363 363 363 362 361 361 360 361 361 361 361 361 360 360 361 361 361 360 359 359 358 358
334 335 338 324 324 324 324 324 325 328 331 336 336 341 343 342 344 337 337 335 338 338 337 340 336 342 336 336 337 345 346 344 347 349 350 352 354 356 355 353 352 353 352 351 353 355 356 362 363 366 364 365 364 364 364 364 364 364 363 364 364 365 363 362 363 363 363 362 363 362 361 362 362 362 362 363 363 363 363 362 362 361 360 360 361 360 360 361 360 361 360 361 360 359 358 357 357
336 340 334 327 325 326 326 325 325 326 328 332 335 341 343 340 341 340 339 338 338 337 336 342 343 342 334 334 341 344 341 343 348 349 350 352 355 357 357 354 355 353 352 353 351 353 354 357 357 363 363 365 364 364 364 364 364 363 364 365 365 364 363 363 364 364 363 362 362 362 363 363 363 363 363 363 363 362 362 363 361 360 359 359 360 360 361 360 360 360 360 359 359 357 357 357 356
340 341 336 327 332 326 326 325 326 326 326 333 340 341 341 339 340 344 341 338 337 336 342 346 343 341 337 338 338 337 339 345 348 350 350 353 355 356 356 355 356 353 352 351 352 354 352 353 355 358 365 365 364 365 365 364 363 363 365 365 365 364 363 363 364 363 363 362 362 362 363 363 363 363 363 363 362 363 361 360 361 360 359 359 359 359 359 360 360 360 361 359 358 358 357 357 357
340 346 336 330 328 327 327 325 325 324 324 335 339 339 339 342 342 341 340 338 337 344 346 348 345 339 333 335 334 337 340 344 348 349 350 353 355 355 356 355 354 353 351 350 351 352 352 351 351 358 362 360 363 369 371 369 365 365 365 364 364 363 363 363 362 363 362 362 362 363 363 363 364 364 363 363 363 363 361 359 359 360 360 359 359 358 360 360 360 360 360 359 358 357 357 357 357
346 342 335 328 325 325 325 327 324 325 325 336 338 339 340 341 343 339 341 343 341 345 344 339 345 336 340 338 340 342 342 344 349 349 348 352 353 354 355 354 352 352 351 351 351 354 353 352 353 355 358 359 363 365 370 368 365 365 364 364 363 363 363 363 363 362 362 363 363 362 361 363 364 364 363 364 363 363 360 360 359 360 359 357 357 357 357 358 359 359 359 357 357 357 356 357 357
348 343 331 328 323 324 325 326 326 321 328 336 338 338 336 335 342 343 346 346 339 339 342 344 340 344 341 342 345 345 344 346 348 348 347 349 350 350 351 352 350 350 350 350 352 355 358 355 355 354 358 359 358 362 363 366 369 365 365 363 363 363 363 363 363 363 364 365 365 364 363 368 369 369 366 364 361 362 359 359 359 359 359 358 357 356 357 358 358 358 358 358 358 357 356 357 356
344 332 328 325 328 325 328 328 328 330 331 333 336 337 337 334 339 341 344 341 342 340 340 342 344 342 345 346 347 346 345 345 345 343 344 345 348 345 346 348 347 346 348 349 352 355 357 360 357 356 356 359 361 364 362 364 367 365 367 367 366 366 365 364 365 365 363 367 364 367 370 369 369 371 366 360 363 361 358 358 359 359 359 358 357 357 358 359 358 357 357 358 358 358 356 359 358
336 331 328 325 328 331 333 332 333 332 330 334 336 338 337 337 338 341 338 337 338 337 339 341 340 342 344 346 345 344 343 343 343 342 342 343 344 344 346 347 346 346 346 348 351 354 357 360 361 355 355 360 361 362 363 365 367 368 366 366 365 363 364 364 363 365 367 368 369 369 367 368 368 370 369 365 358 358 356 357 359 359 358 357 356 357 358 358 358 358 357 358 359 358 360 362 361
339 332 326 328 333 333 334 334 333 335 334 333 334 337 337 339 339 342 337 336 337 336 336 339 338 337 340 342 344 342 342 341 343 343 342 343 343 344 345 345 345 346 347 347 349 353 356 358 361 358 357 360 360 361 361 365 367 367 363 364 364 364 364 362 363 364 366 366 365 365 364 367 368 368 365 366 363 359 358 358 358 358 358 357 355 357 356 357 358 358 359 358 360 361 363 361 361
338 332 327 332 336 331 333 335 335 335 335 334 334 336 335 338 340 339 338 335 335 338 340 339 338 338 339 341 341 341 341 340 340 342 341 341 343 344 345 347 347 347 348 348 350 352 356 358 360 362 359 358 359 360 362 364 365 361 361 361 361 360 359 360 361 363 364 365 365 362 362 365 365 369 369 367 367 367 363 359 359 357 357 356 356 354 355 357 359 361 360 359 362 362 361 358 359
337 331 333 335 335 331 335 336 337 336 335 335 334 332 333 340 339 337 338 332 333 337 341 342 342 342 341 340 341 341 340 339 340 339 340 341 341 342 345 347 349 349 349 348 349 351 355 357 359 361 358 358 359 358 361 364 363 360 360 360 359 359 358 359 359 361 362 363 362 360 361 364 365 366 368 366 368 367 365 364 364 362 358 357 356 354 356 359 359 359 361 359 360 357 358 360 359
328 334 334 335 337 335 336 337 337 337 334 333 332 336 338 336 335 338 338 334 338 342 344 343 345 344 344 344 342 340 339 340 340 340 341 341 342 343 344 346 346 347 348 349 351 351 355 357 360 361 359 358 359 359 361 361 361 359 360 359 359 356 358 358 358 358 363 366 364 362 359 360 361 361 363 365 366 367 364 363 364 365 362 356 362 361 359 360 359 359 360 359 367 359 360 362 362
332 328 334 334 336 335 338 337 337 336 334 333 335 337 333 334 330 337 336 338 341 343 345 346 346 346 345 342 342 340 340 340 341 343 343 343 343 343 345 346 347 349 350 349 350 350 355 354 359 361 361 358 358 361 360 360 360 359 358 361 359 357 357 358 357 360 364 363 365 364 364 363 360 360 363 363 364 366 365 366 365 361 367 367 362 361 358 361 362 365 357 362 360 361 356 360 359
328 327 332 334 336 336 337 337 336 335 335 336 334 331 332 334 333 336 334 337 341 344 346 347 346 345 344 343 341 341 341 341 341 342 344 345 344 345 347 347 348 347 347 349 350 349 352 354 359 359 360 361 357 358 358 358 359 359 359 358 359 360 359 359 360 364 364 363 364 366 368 361 362 363 363 365 366 365 365 364 361 359 364 363 363 362 361 361 357 357 366 362 363 362 360 360 360
328 328 332 333 332 334 335 335 334 334 335 335 331 330 332 334 336 332 336 338 343 346 345 346 345 343 342 342 342 342 341 341 342 342 343 345 345 346 347 347 347 346 348 350 350 350 351 354 355 357 358 360 359 352 356 357 358 358 359 359 360 362 360 362 363 360 364 363 362 365 364 364 361 361 363 366 365 364 364 363 362 361 361 363 366 365 362 361 363 360 362 361 360 361 360 362 360
329 329 329 330 332 333 334 332 334 335 334 333 329 328 329 333 332 327 335 339 344 344 344 345 344 342 342 342 342 343 342 341 342 344 345 346 346 345 346 347 347 347 350 349 351 351 351 353 353 356 358 362 359 353 356 357 359 357 360 359 360 361 361 363 363 363 363 362 365 366 366 367 364 362 365 366 367 365 364 365 362 363 362 363 364 363 366 364 362 360 362 359 360 362 360 362 360
323 327 327 327 328 329 330 330 330 332 329 331 330 328 330 331 331 329 335 340 345 342 343 344 343 343 343 343 343 344 343 343 344 344 342 343 345 345 346 347 347 348 349 350 351 354 351 351 352 355 357 361 360 357 359 358 360 359 361 360 359 361 364 363 360 362 362 363 366 365 366 366 368 368 369 368 368 365 363 362 363 364 360 362 364 364 366 367 365 366 369 368 368 366 363 364 364
323 325 318 320 324 323 326 326 328 330 327 330 331 326 324 326 326 331 337 343 343 342 342 343 343 343 344 344 343 344 343 343 343 342 342 344 346 348 346 349 348 349 351 351 352 353 350 350 351 355 357 361 361 357 358 358 359 358 359 360 360 359 362 361 360 361 364 366 366 366 367 367 369 371 369 370 368 365 365 366 364 365 364 364 366 369 369 369 368 367 369 370 368 365 363 362 363
321 319 317 316 317 318 325 328 328 327 328 330 329 315 320 325 329 333 339 342 341 340 341 342 342 343 344 343 343 344 344 344 343 344 344 345 346 347 348 349 350 350 350 352 352 351 350 351 352 353 356 357 360 357 360 358 359 358 360 359 362 361 358 358 361 364 362 364 366 366 366 369 370 371 373 371 369 367 367 367 364 363 365 368 369 370 366 365 364 366 365 365 358 363 359 361 359
312 314 315 311 311 312 323 326 328 325 329 329 329 317 321 324 329 333 340 341 339 338 340 341 342 343 343 343 343 343 344 345 344 345 345 346 346 347 348 349 350 351 352 352 352 351 352 352 353 352 355 357 358 359 360 360 359 356 359 359 361 361 361 359 359 362 360 363 365 363 366 368 372 375 374 372 369 367 365 363 364 364 368 369 367 368 366 366 367 366 363 362 360 355 356 356 356
313 308 306 310 310 313 322 326 326 322 327 330 327 318 320 324 329 334 339 339 339 338 339 340 341 342 343 343 343 343 343 345 345 345 345 346 346 346 347 348 350 351 353 353 352 352 351 354 356 354 356 357 359 360 362 363 361 358 358 359 360 362 359 359 358 360 360 361 363 367 367 369 370 374 377 375 370 368 365 364 363 370 371 369 369 369 369 365 368 367 365 361 353 349 353 351 352
311 307 306 307 310 312 317 322 326 327 327 328 325 319 322 323 329 336 338 338 338 338 339 340 341 342 342 343 343 343 343 344 344 345 345 346 346 347 347 348 349 351 352 353 353 352 352 353 357 353 354 357 359 360 362 364 363 362 361 360 356 361 357 358 358 361 363 363 361 362 367 368 370 372 376 377 372 370 367 366 363 369 372 371 370 368 367 367 367 361 365 362 357 353 345 343 345
305 309 306 309 308 311 312 321 325 326 325 322 326 322 323 323 330 334 336 337 337 336 338 340 341 342 343 343 343 343 343 343 342 344 345 346 347 348 348 351 351 352 354 353 354 353 354 354 355 355 358 358 360 361 362 361 362 364 362 360 360 360 359 358 358 359 361 359 361 363 367 367 369 371 374 377 373 371 370 367 367 370 372 371 369 369 367 367 367 367 363 360 355 352 345 344 343
303 305 305 306 310 313 313 314 320 323 324 322 322 322 323 325 327 333 334 336 336 336 338 339 341 342 343 343 343 343 343 343 343 346 346 346 347 349 349 351 352 352 353 353 356 356 356 356 357 358 358 358 359 362 362 361 362 364 361 360 359 361 361 358 357 357 357 360 358 362 368 367 368 369 372 375 374 370 369 369 372 372 372 371 371 369 368 366 367 363 363 359 361 355 349 348 347
305 307 306 307 307 310 311 317 321 321 320 320 320 319 321 324 325 331 334 335 335 335 338 340 341 342 343 343 343 343 343 344 346 347 348 347 348 349 349 351 352 352 353 353 356 357 357 358 360 359 361 359 360 361 359 357 358 357 357 358 358 356 356 356 359 357 359 357 358 361 366 365 369 369 371 373 374 372 369 368 371 371 370 369 368 366 366 365 364 365 365 352 353 353 353 351 348
309 308 308 307 308 311 314 316 320 321 317 318 320 321 321 323 325 326 333 335 334 334 336 338 340 341 342 343 343 344 344 344 347 348 348 348 348 350 350 351 352 353 353 354 354 356 358 357 359 359 361 362 360 358 358 356 354 356 356 355 352 353 354 355 356 355 357 357 362 362 365 364 368 370 369 370 371 370 370 371 370 371 371 368 368 367 368 367 366 367 364 361 352 350 346 346 349
307 307 307 307 309 308 313 314 318 321 316 317 320 320 321 323 324 326 329 333 331 332 335 338 340 341 342 343 343 344 345 347 348 348 348 349 348 349 350 351 352 351 353 353 354 355 359 359 360 360 360 360 360 359 358 358 359 357 356 356 355 350 351 350 351 353 352 353 363 366 367 366 369 369 369 370 369 369 369 367 369 371 371 369 370 370 369 366 369 367 364 354 355 349 347 345 349
307 306 306 306 307 310 313 314 316 317 315 314 319 318 319 322 324 326 326 331 333 333 335 338 341 341 342 342 343 344 345 345 346 347 348 348 348 349 350 351 352 353 353 353 355 355 358 358 360 362 360 359 359 359 360 358 360 361 359 357 355 349 353 353 348 350 353 353 358 364 364 367 369 369 369 369 368 368 367 368 369 371 371 370 367 370 370 369 368 365 364 353 348 350 348 352 353
305 304 303 304 307 307 305 312 315 316 314 313 317 315 318 322 325 325 327 329 334 334 334 336 341 341 341 342 343 343 344 345 345 347 346 347 348 349 350 350 352 352 353 353 354 354 356 359 361 361 360 359 358 359 361 362 362 365 365 364 362 355 354 355 354 354 358 356 356 360 365 369 369 368 367 369 368 367 369 370 367 367 370 371 368 368 368 367 368 367 364 357 353 345 343 345 349
304 303 303 305 306 308 309 310 313 314 315 315 314 313 313 317 318 321 325 327 331 332 332 335 340 343 344 345 344 345 344 346 346 347 347 347 347 348 349 351 351 350 352 353 354 354 354 358 360 362 361 361 360 362 362 364 363 365 365 366 365 360 360 356 353 349 355 357 356 358 361 367 369 368 369 369 367 369 370 369 367 367 366 369 371 369 368 366 368 365 366 361 354 346 342 343 348
302 304 304 305 308 308 310 311 310 310 308 313 311 305 308 317 318 319 322 323 325 330 332 335 339 342 343 342 343 345 346 348 348 347 347 348 348 349 351 351 351 351 352 354 354 355 356 358 361 362 362 362 361 362 364 364 362 360 360 358 355 355 353 351 348 344 343 346 346 352 360 365 368 369 371 370 369 367 370 369 369 366 365 366 367 366 367 368 361 362 361 364 355 352 350 345 345
301 302 306 305 307 310 310 310 310 306 304 311 314 305 304 315 315 319 322 323 324 329 332 334 338 341 342 342 343 344 344 346 348 348 349 348 349 350 351 352 353 351 354 355 355 356 358 359 362 363 362 362 362 364 364 363 361 359 360 358 354 354 352 353 354 347 345 347 350 352 358 364 369 367 369 371 370 370 369 370 369 367 366 366 366 365 368 367 364 364 365 364 356 354 350 346 344
300 306 307 306 304 306 308 309 309 308 313 314 312 310 306 307 314 320 322 321 323 327 331 334 336 340 340 342 343 345 345 346 347 348 349 349 350 350 350 352 353 352 355 356 355 356 358 360 362 363 363 363 363 364 364 362 359 359 361 359 356 354 352 354 356 353 351 355 354 354 359 364 369 369 368 370 372 369 369 369 370 368 366 364 363 362 363 366 367 369 369 365 362 359 353 348 345
303 307 307 306 305 304 305 307 308 309 308 305 310 312 306 306 313 320 321 318 320 323 327 333 336 340 341 342 342 344 346 346 347 347 348 349 350 351 352 353 354 354 354 355 356 357 359 361 362 364 363 364 363 364 363 362 361 361 361 360 357 356 356 356 358 356 353 358 360 359 363 364 367 370 369 370 371 370 369 369 370 369 366 365 366 361 361 365 369 369 369 364 361 360 358 354 351
306 308 309 309 308 306 304 303 305 307 306 302 307 311 304 305 312 313 317 317 319 322 324 331 335 338 340 340 342 344 346 347 348 348 349 350 351 352 354 355 354 354 355 357 358 358 359 361 362 363 363 363 364 365 364 363 362 362 361 360 359 357 358 358 357 356 356 360 359 361 362 364 364 367 370 370 370 370 369 369 367 366 367 363 364 361 361 364 366 367 367 367 364 360 360 357 353
309 307 306 306 306 305 305 303 303 303 299 302 308 310 308 302 309 312 313 314 318 320 324 328 335 337 339 342 343 343 345 346 347 348 349 350 352 353 353 353 355 355 356 357 356 357 358 359 362 362 363 363 364 363 364 363 362 362 360 361 361 360 360 358 357 358 358 361 359 357 360 364 364 363 363 368 369 369 369 369 365 364 366 366 367 366 363 360 361 362 364 366 366 363 360 359 355
307 305 303 304 304 306 304 302 303 296 295 303 308 308 309 300 307 313 318 321 321 321 321 325 331 334 337 341 341 343 345 346 347 347 348 350 351 352 353 353 354 355 355 355 356 357 358 359 361 362 363 364 364 363 364 362 361 361 362 363 362 362 362 359 359 358 360 359 358 356 359 361 363 363 366 364 367 365 368 367 369 366 366 367 366 368 367 363 361 363 362 365 365 366 365 363 361
306 304 304 298 298 299 295 299 295 294 294 302 306 308 305 304 310 315 317 319 321 323 323 324 329 331 335 338 342 343 344 346 347 348 348 348 349 349 350 353 355 355 354 356 356 356 358 359 361 361 362 364 363 364 363 362 362 362 362 363 363 363 363 362 361 359 361 359 358 357 360 360 363 362 363 363 364 366 367 369 369 366 367 368 369 367 368 368 366 362 363 364 364 365 365 364 360
304 302 301 297 295 295 291 296 299 298 302 305 305 308 301 307 310 316 316 319 321 323 325 326 326 328 332 337 341 341 344 345 346 347 348 349 349 350 351 352 354 355 355 355 356 357 358 359 361 361 362 364 364 364 362 361 361 363 364 363 363 363 363 364 362 360 360 360 360 358 358 358 361 362 362 364 363 365 365 368 370 369 371 370 370 370 368 369 369 364 365 365 364 366 366 366 364
304 306 303 300 300 297 293 296 293 295 299 303 306 302 300 300 304 314 317 319 320 322 323 325 325 326 328 334 340 340 342 344 347 348 347 348 349 351 350 352 354 354 354 355 356 357 359 360 361 362 362 363 364 363 362 360 360 361 364 364 363 365 363 363 362 362 361 361 359 359 360 358 358 362 361 365 368 366 367 369 369 369 369 371 371 370 368 369 371 369 366 367 366 365 367 366 364
307 307 307 302 300 306 299 301 300 299 299 299 302 300 305 306 315 316 318 317 318 319 320 322 322 324 326 326 334 337 338 341 344 346 347 349 351 352 351 352 353 354 356 355 357 358 358 360 362 363 363 363 364 363 362 361 361 362 364 365 364 365 364 364 363 363 362 363 363 361 362 362 361 361 365 366 367 367 368 368 370 369 370 370 372 371 370 367 370 368 366 367 367 364 367 368 366
305 306 300 303 309 306 302 303 304 304 302 299 306 304 306 311 311 314 315 314 316 317 317 317 319 321 325 324 327 335 336 339 342 344 346 349 350 351 351 353 353 354 355 355 357 358 360 360 361 362 364 364 364 364 362 362 363 363 364 364 365 363 363 362 360 362 359 363 364 363 361 362 363 364 364 368 368 370 369 368 368 366 369 370 371 372 369 369 370 369 365 368 366 363 366 368 366
308 301 305 310 311 309 304 296 300 298 295 298 303 301 303 303 299 311 311 311 312 314 316 317 319 320 321 322 325 331 335 337 342 346 348 349 350 351 351 352 353 354 354 356 358 360 361 361 362 362 363 363 364 363 362 363 363 363 364 364 364 363 363 362 361 362 362 362 364 366 363 362 362 362 363 363 368 366 368 369 367 367 366 369 368 367 368 368 370 366 367 369 366 366 366 368 368
307 307 314 304 298 298 304 302 294 294 293 296 299 301 302 304 304 310 309 309 310 313 315 316 317 319 321 323 326 331 334 336 341 343 346 347 348 350 351 351 352 354 357 357 358 359 359 361 362 362 362 363 363 361 363 363 364 363 364 364 364 363 364 365 363 365 365 363 362 363 363 361 364 365 367 367 367 365 367 368 369 365 366 367 368 366 368 368 369 367 365 365 367 369 366 367 369
311 312 309 312 307 303 300 302 303 302 296 297 298 300 299 306 307 309 310 312 312 312 313 315 317 318 320 323 327 331 333 335 339 343 345 346 348 349 350 350 351 353 354 356 357 357 357 359 361 362 363 364 364 363 364 363 364 364 364 364 365 365 366 366 366 365 364 364 363 362 363 360 363 364 365 367 366 365 364 364 364 362 361 363 365 364 365 367 368 367 365 363 363 369 368 367 364
304 304 303 306 306 310 308 307 302 299 298 298 298 297 302 308 312 311 312 313 315 314 315 317 318 320 320 323 327 330 334 337 339 342 344 346 347 348 349 351 351 353 355 355 355 355 356 358 360 361 361 362 362 363 363 364 364 364 365 365 364 365 365 366 366 365 365 365 365 365 364 362 365 364 365 365 366 366 365 365 362 363 361 362 365 364 365 366 368 367 366 367 367 367 367 367 367
306 304 302 305 303 301 298 297 306 303 299 295 298 297 307 311 314 312 312 314 314 316 316 317 318 319 323 324 328 330 334 339 341 342 343 345 347 348 349 351 351 351 352 353 353 354 356 357 358 359 359 360 360 362 363 365 365 365 365 365 366 365 365 366 366 365 365 364 365 365 365 365 362 365 365 364 366 365 365 365 364 364 365 364 366 368 364 364 366 366 366 364 366 368 368 366 367
Wind_Speed
12 10 9 7 6 5 5 4 5 4 5 5 3 1 3 1 4 4 4 6 5 3 4 5 10 10 4 6 6 6 2 11 5 3 4 7 14 17 16 17 17 16 14 15 13 13 15 13 14 15 15 15 15 15 15 15 15 15 15 15 14 15 15 15 15 15 14 14 14 14 13 12 12 13 13 13 13 13 11 10 10 10 10 10 10 10 11 11 12 13 13 13 12 12 12 12 12
10 9 8 7 6 7 5 5 4 4 5 4 4 2 6 5 5 2 6 3 4 7 6 9 9 7 2 9 8 8 12 10 8 9 9 13 17 14 17 18 17 17 14 13 13 13 13 14 12 14 14 15 15 14 15 15 15 15 15 14 14 14 14 14 14 14 15 15 15 14 13 12 12 13 13 13 12 11 11 11 9 10 12 9 8 10 12 12 12 12 13 13 13 13 12 12 12
9 9 7 6 5 3 1 1 4 4 4 2 7 6 3 3 3 5 5 4 7 9 10 10 9 6 7 7 9 1 8 8 12 12 11 16 17 13 18 18 16 15 15 12 12 13 12 13 11 13 14 14 15 14 14 15 15 14 14 14 14 14 14 14 14 14 13 13 13 15 14 13 13 13 14 14 11 11 10 10 11 11 10 10 10 9 12 12 11 10 12 13 13 13 13 12 11
8 7 7 7 5 1 3 3 4 5 2 5 5 5 5 4 6 6 4 7 9 11 11 11 8 2 5 8 6 11 10 8 9 14 12 13 11 17 17 18 17 14 12 11 12 11 11 13 10 12 14 14 15 14 14 14 14 14 14 14 14 14 14 14 13 13 14 13 14 13 13 12 13 13 15 14 11 10 10 11 12 11 10 11 11 10 10 12 11 11 13 13 12 11 11 12 11
8 7 5 4 2 4 3 3 5 3 2 4 6 5 5 5 8 7 7 8 10 11 11 9 7 5 5 7 2 3 8 10 11 10 13 11 16 17 18 18 15 13 12 12 11 12 12 13 11 13 14 14 14 14 14 14 14 14 14 14 14 13 13 13 13 13 13 13 13 13 13 12 12 12 14 14 12 10 11 11 12 12 10 10 10 11 10 11 11 13 13 12 12 11 11 11 11
7 6 3 2 3 3 4 5 3 1 6 2 1 6 5 6 7 8 9 9 9 11 9 9 6 10 7 6 4 8 8 7 10 10 14 13 20 20 19 17 15 13 13 11 11 11 12 14 13 13 13 14 14 13 13 13 14 13 14 13 12 13 12 12 13 12 13 12 12 12 12 12 11 11 12 14 12 12 11 12 11 11 10 11 11 9 10 11 12 12 13 12 11 12 12 11 11
6 6 5 4 5 4 4 2 2 2 8 2 4 4 5 6 7 9 11 10 7 8 7 6 9 10 7 7 10 8 5 9 10 13 12 18 19 19 19 16 15 15 14 11 11 12 15 13 13 13 13 13 13 13 13 13 13 13 13 13 13 13 12 12 11 12 13 12 12 12 12 12 11 11 11 13 13 11 11 11 11 11 12 12 12 10 10 11 13 12 12 12 12 12 12 11 11
6 6 5 6 2 5 4 1 1 2 7 3 5 3 5 7 8 8 11 10 10 8 9 7 9 4 9 8 5 6 6 9 9 16 17 19 19 18 18 16 15 15 14 12 11 12 14 13 13 13 13 13 12 12 12 12 12 13 13 13 13 12 12 12 12 11 13 12 12 12 12 11 11 11 12 12 13 13 12 12 12 12 11 11 11 12 11 10 13 12 13 12 12 11 11 11 11
4 4 2 5 5 4 4 1 3 3 3 2 5 5 6 7 7 8 10 6 10 7 11 11 7 5 6 7 8 7 6 7 14 18 20 20 19 18 14 16 15 14 14 13 12 13 12 13 13 12 12 12 12 12 12 13 11 12 12 13 13 12 13 12 13 12 13 12 12 12 11 11 11 11 11 12 13 13 12 11 11 11 11 12 11 11 11 12 13 13 13 13 12 11 11 11 11
5 3 2 4 5 4 4 4 2 5 3 4 4 7 7 7 8 8 8 9 8 10 10 10 5 7 9 9 9 6 7 12 16 18 19 20 20 17 16 16 16 16 14 13 13 13 11 13 12 12 12 12 12 11 13 12 10 10 12 14 14 13 13 12 12 12 12 12 12 11 11 10 10 11 11 12 13 12 12 12 12 12 12 11 11 11 11 11 12 12 13 13 12 11 11 10 10
5 5 4 5 3 3 1 4 2 6 5 5 6 7 8 8 8 8 7 8 9 10 11 9 7 11 9 9 7 6 10 15 18 20 20 20 18 16 16 15 15 15 14 14 14 12 12 11 14 12 12 12 13 12 12 11 12 10 11 13 13 13 13 12 12 12 12 12 12 11 11 10 10 10 11 12 13 12 12 12 11 12 11 10 11 11 10 10 11 12 12 13 12 11 10 10 9
4 5 4 4 4 4 4 3 2 4 4 5 7 8 7 9 7 8 8 9 10 10 9 10 7 10 9 8 6 8 12 16 19 19 19 19 15 16 15 14 15 14 15 14 14 13 12 11 11 12 12 12 13 11 11 11 11 11 11 13 13 12 12 12 12 12 12 12 12 12 11 11 10 10 11 11 12 13 12 13 12 12 10 10 11 11 11 10 10 11 12 12 12 11 10 9 8
5 4 4 5 3 3 3 4 5 1 5 5 8 6 8 10 7 6 6 8 10 10 10 6 10 8 8 7 7 10 14 18 18 19 19 16 15 13 14 14 14 15 14 14 14 13 14 12 11 11 12 13 15 12 11 11 10 12 12 12 12 12 12 12 12 11 12 12 11 12 11 11 11 10 11 12 12 14 14 14 13 12 11 11 12 11 11 10 10 11 11 12 12 11 9 8 7
6 3 4 5 1 4 4 2 2 3 5 9 7 8 8 7 6 6 6 7 9 8 8 8 8 6 11 11 9 10 13 19 20 20 17 16 14 14 15 14 14 14 14 13 13 13 13 12 11 10 11 11 11 12 12 12 11 10 12 12 12 12 12 11 11 11 11 11 11 11 11 11 11 11 11 13 15 14 13 12 12 12 11 11 11 12 11 10 9 11 11 12 12 11 10 8 7
7 3 5 4 5 5 2 4 4 1 7 7 8 9 9 5 6 7 7 7 8 6 9 6 5 8 7 10 11 12 16 20 20 18 17 16 16 15 15 14 14 14 13 13 13 13 12 12 11 10 10 10 10 7 8 10 13 12 12 12 12 12 11 11 11 11 11 11 12 11 11 11 10 10 11 12 14 15 13 12 12 11 11 11 11 12 11 10 11 11 11 12 11 11 9 7 7
5 5 4 5 4 5 6 2 3 2 7 5 9 8 8 6 6 7 7 2 8 7 8 7 6 2 5 9 15 18 21 22 20 19 18 17 16 14 14 14 13 13 12 13 13 12 12 11 10 9 9 10 10 7 7 9 11 12 12 12 12 11 11 11 11 11 11 11 11 11 11 11 10 10 11 12 15 13 12 10 11 11 11 11 11 11 11 11 11 11 11 11 11 10 9 7 7
5 5 5 5 5 5 6 2 2 6 7 6 9 10 9 8 7 3 5 3 10 9 6 5 6 2 4 5 17 21 22 22 21 20 18 15 13 12 12 12 11 12 9 12 11 11 12 11 11 9 9 10 11 10 9 7 10 13 12 12 11 11 11 11 11 11 11 11 10 9 9 8 8 8 8 10 11 10 12 12 11 11 11 11 11 10 9 11 11 11 11 11 11 10 9 8 7
4 5 6 5 3 3 5 5 6 2 2 6 9 10 8 9 9 7 7 7 6 9 6 7 5 3 5 12 18 21 23 24 22 22 19 16 13 13 12 12 12 12 11 11 11 11 11 10 11 9 9 10 9 8 7 8 9 10 10 10 9 10 9 10 9 8 9 8 9 8 5 5 6 6 9 10 8 8 8 10 12 12 11 10 10 9 9 10 10 10 10 10 11 12 10 6 6
7 5 6 5 2 5 2 5 4 4 5 4 6 8 6 7 10 9 8 9 10 9 8 8 9 9 9 16 19 23 24 24 23 21 21 19 15 16 14 12 13 13 12 11 10 12 10 10 10 10 9 9 10 9 6 6 9 8 9 8 7 8 8 7 7 7 6 6 6 5 5 5 6 6 5 8 10 12 10 8 11 12 11 10 9 9 8 8 8 9 10 10 9 8 6 5 5
9 7 6 6 1 2 1 2 3 4 1 5 5 7 7 7 8 9 8 10 10 9 9 10 10 12 13 17 21 23 23 24 24 22 22 20 17 17 15 15 14 14 13 11 11 10 11 10 10 10 9 9 9 7 8 8 7 7 7 7 7 7 7 6 6 6 6 6 5 4 5 5 6 6 9 11 13 11 13 17 17 15 13 11 9 8 8 7 8 7 8 9 7 3 3 4 4
8 9 7 1 3 3 5 1 5 4 2 3 3 5 7 8 6 8 7 8 9 7 10 11 13 15 17 19 21 23 23 24 24 23 22 22 20 17 14 14 13 13 12 11 11 11 12 11 11 10 10 8 8 7 7 7 7 7 7 6 6 6 6 6 6 5 5 5 5 4 5 5 5 5 5 5 3 6 9 10 11 12 9 7 13 9 7 7 6 5 5 5 4 5 5 5 5
4 10 9 2 2 5 5 3 4 5 4 2 3 6 6 6 6 8 7 5 3 6 9 9 13 17 20 21 22 22 23 24 24 24 24 23 22 19 16 14 14 12 12 11 12 12 12 11 11 10 10 9 8 7 6 6 7 6 6 6 6 5 6 5 5 5 6 4 4 5 5 5 4 4 4 4 4 4 4 4 5 10 11 7 9 5 4 6 6 6 5 4 4 5 5 4 4
9 9 10 8 5 5 2 2 2 2 2 1 2 2 1 7 6 8 7 7 5 3 10 10 15 17 19 20 22 23 24 24 24 24 22 22 21 20 18 15 15 13 12 11 12 11 12 12 12 11 10 9 8 7 7 7 6 6 6 6 6 5 6 5 5 5 5 4 3 4 4 4 4 4 4 4 4 3 3 3 4 4 7 9 6 5 6 4 3 1 3 5 2 4 5 3 4
11 7 3 7 7 9 6 6 4 5 3 2 2 1 6 6 8 6 9 9 2 3 9 12 16 18 20 21 22 23 23 23 23 22 21 20 20 20 18 16 15 13 12 13 12 12 12 14 12 12 10 10 8 7 6 6 6 7 6 6 5 5 5 5 5 4 5 4 3 3 1 3 3 3 4 4 4 3 4 4 3 3 6 3 3 6 7 7 6 1 4 2 4 3 8 6 5
13 12 11 8 6 6 6 6 7 5 5 5 3 5 6 6 6 5 9 10 5 6 11 14 16 19 19 21 22 21 21 21 20 20 18 16 18 18 17 14 15 14 14 14 12 13 14 13 14 13 12 11 9 8 7 6 6 6 7 6 5 6 4 5 4 5 4 4 4 2 2 3 2 3 4 4 3 4 3 2 3 4 5 2 3 6 5 4 8 5 4 2 5 4 5 5 4
15 15 8 5 7 7 5 6 7 8 5 5 6 7 6 7 6 9 7 9 8 10 12 16 17 18 19 21 22 22 21 23 21 21 20 17 18 19 18 16 15 15 14 14 13 12 14 14 15 14 12 10 9 9 6 7 6 6 6 6 5 5 5 4 5 4 4 4 4 3 1 1 2 3 4 3 3 3 3 3 2 3 4 3 4 3 4 5 3 4 2 6 2 2 3 5 3
3 11 14 14 11 10 9 11 9 9 9 7 9 8 7 7 7 5 9 9 12 12 14 16 17 18 18 18 20 21 22 23 22 19 18 17 17 18 17 16 16 15 15 15 13 12 12 14 14 13 12 11 9 9 7 7 6 6 6 6 5 6 5 4 4 3 4 4 3 3 2 1 1 2 4 3 3 3 3 2 4 1 3 4 3 4 3 3 4 3 3 4 5 5 4 4 4
7 2 5 10 12 13 13 13 13 9 9 11 11 11 8 7 9 6 8 13 15 14 15 16 16 16 16 18 19 19 19 20 18 19 22 21 16 16 18 14 16 16 16 15 13 12 14 15 15 14 13 11 9 9 7 7 6 6 6 5 5 5 5 5 5 4 4 3 3 4 2 2 1 3 3 2 2 2 2 3 3 3 4 3 3 4 3 3 3 4 3 3 4 4 5 5 3
10 9 11 11 9 11 12 14 13 11 9 6 5 9 11 10 11 12 8 14 15 14 15 17 16 16 16 17 17 16 17 18 18 17 20 18 17 15 18 16 16 15 12 15 14 14 15 15 14 14 13 12 10 10 8 7 7 6 6 6 5 5 6 5 5 4 4 4 4 3 3 2 1 2 2 2 1 2 3 1 3 2 4 3 4 4 2 2 3 3 4 4 3 4 4 5 4
9 11 10 12 12 13 15 14 14 13 9 9 7 7 9 13 13 11 13 14 15 14 14 15 14 15 15 16 16 16 17 19 19 18 18 17 17 17 18 17 16 14 12 12 15 15 13 11 10 11 12 13 11 10 8 7 7 7 6 5 5 5 5 5 4 4 4 4 4 4 4 3 2 1 2 2 1 2 2 2 2 3 4 3 3 1 2 1 2 1 3 3 4 3 4 4 3
11 11 9 10 10 10 12 14 15 15 10 11 9 9 6 9 14 12 16 16 17 16 15 16 15 15 15 16 15 16 19 19 21 20 20 19 17 16 18 17 17 15 12 13 16 16 15 12 10 10 12 13 12 10 9 7 7 7 6 6 5 5 4 5 6 5 5 5 5 5 4 4 3 2 1 1 1 1 1 3 1 3 3 2 3 2 1 2 1 1 1 2 3 4 4 4 4
9 9 12 11 11 9 9 10 14 14 11 13 11 10 8 7 12 15 15 16 17 15 16 17 16 16 16 15 16 16 18 19 21 22 21 20 18 16 18 18 18 16 15 14 15 15 15 14 12 12 14 13 13 10 9 7 7 6 6 5 5 6 4 5 5 5 6 5 5 5 5 4 3 2 1 1 1 1 1 2 3 4 2 2 3 2 0 2 2 0 2 2 2 2 2 4 4
9 12 11 14 13 11 9 13 11 15 9 14 16 5 9 9 11 14 14 16 17 14 16 17 17 18 17 16 15 15 16 18 19 20 22 20 18 16 17 18 17 17 15 15 15 15 15 15 13 13 15 14 12 12 10 8 7 6 6 7 6 6 5 5 4 4 4 5 5 5 6 4 4 3 2 1 1 1 1 2 3 4 2 3 2 1 2 2 1 2 2 2 2 0 0 2 3
11 11 12 12 15 13 11 10 12 14 13 10 16 13 9 6 9 12 13 14 16 14 16 17 16 16 17 16 16 16 17 17 19 20 22 21 17 18 17 16 18 17 15 16 16 15 15 14 13 12 12 13 11 11 10 9 7 6 6 5 6 5 5 4 5 5 4 4 4 4 5 4 4 4 2 1 1 1 1 1 2 3 3 3 2 1 2 2 1 1 2 1 2 1 1 2 3
11 13 13 13 13 14 14 10 12 14 15 15 13 16 14 12 9 11 12 13 14 13 14 16 17 17 17 16 16 18 17 18 19 19 22 22 20 19 17 17 17 17 14 17 15 14 13 13 12 12 11 12 12 11 10 9 8 7 6 6 6 6 5 5 4 4 4 4 5 5 5 5 4 4 3 2 2 2 1 1 2 4 3 2 2 1 2 2 2 2 1 1 1 2 2 2 3
13 14 12 13 12 12 14 9 7 12 14 14 16 13 14 16 12 10 11 13 13 13 12 12 14 15 16 16 16 16 17 19 17 18 20 20 18 19 17 16 16 16 15 15 16 15 14 13 12 12 11 11 11 10 9 9 8 7 7 6 6 6 6 6 5 4 4 4 4 4 5 4 4 4 4 3 2 1 1 2 3 3 3 1 1 2 2 2 2 2 1 1 0 1 2 1 1
8 11 12 14 12 12 14 13 6 5 6 12 15 16 14 14 15 14 11 12 13 12 13 13 14 15 16 16 17 17 18 18 17 19 20 21 21 19 18 16 16 17 16 16 16 16 15 14 13 14 12 11 10 10 10 9 9 8 7 7 7 7 7 6 6 6 5 5 3 3 4 4 4 4 4 4 3 2 2 1 2 2 3 2 1 2 2 2 1 2 1 0 1 1 1 1 2
7 7 10 10 12 11 12 13 9 8 8 10 13 14 16 16 14 15 12 12 14 14 14 15 16 16 15 17 17 17 16 13 17 17 20 20 18 20 18 16 18 19 17 17 17 17 16 16 15 14 12 12 11 11 9 10 9 8 8 8 7 7 7 7 7 6 7 6 5 4 4 4 4 4 4 5 4 3 2 2 2 1 3 2 2 2 1 0 1 1 1 1 1 1 1 2 3
10 9 8 10 11 11 11 8 3 4 8 10 10 13 13 15 16 14 12 14 12 13 14 15 16 17 15 15 16 16 16 17 18 19 20 20 22 22 18 17 17 19 18 18 17 17 16 15 14 13 12 13 12 11 10 10 9 8 8 7 8 7 6 6 7 6 6 6 6 6 5 5 5 5 5 5 4 4 4 2 2 2 3 3 2 2 2 1 0 1 2 0 1 2 0 1 1
10 11 10 10 9 11 12 12 10 9 8 9 12 14 12 13 16 16 15 14 12 13 14 14 15 16 17 17 17 17 18 17 19 20 22 21 21 20 19 18 18 18 17 17 18 18 15 14 14 14 13 13 12 12 11 10 10 9 7 5 7 6 6 6 6 5 5 6 6 6 6 6 6 6 6 6 5 4 4 3 2 1 2 4 3 3 2 2 1 1 1 2 1 1 3 3 1
13 13 12 10 10 12 11 3 6 7 9 12 11 11 11 12 13 14 12 12 13 12 12 13 13 14 14 14 17 18 20 20 19 20 20 20 21 21 20 18 18 18 18 18 18 17 13 17 15 15 13 13 12 13 13 10 9 9 7 5 6 5 4 6 7 7 7 6 6 6 6 7 7 6 6 6 5 5 4 4 3 2 2 2 2 2 3 3 1 0 1 2 2 2 1 3 1
11 16 16 13 11 10 12 7 6 8 11 14 13 11 14 14 18 17 13 14 15 12 12 14 14 14 14 16 17 17 18 19 20 22 22 22 22 20 20 20 20 19 19 18 18 18 16 15 16 15 13 13 13 14 14 11 10 9 9 8 8 8 7 7 8 8 8 8 9 7 7 6 7 7 6 5 6 5 5 5 4 3 3 3 2 2 2 4 5 4 2 2 2 1 2 1 3
11 10 17 17 14 9 8 10 7 9 11 10 15 15 12 12 18 18 18 15 15 13 14 15 14 14 15 15 15 17 18 18 19 19 20 20 20 20 21 20 20 20 19 18 17 18 18 16 16 16 14 12 13 13 15 12 11 10 12 11 10 9 8 8 7 7 7 7 7 7 6 7 7 7 7 6 6 6 5 5 4 4 3 3 2 2 3 3 1 2 3 2 2 2 1 1 2
11 3 8 16 19 16 13 11 11 10 9 6 7 9 13 11 12 17 19 20 17 15 15 15 14 16 17 16 16 17 18 19 18 20 21 22 22 23 23 23 20 19 19 18 18 17 19 18 17 17 14 13 13 13 15 13 12 12 13 11 10 10 10 8 8 7 6 5 6 7 6 6 6 7 6 6 6 6 5 5 5 4 3 3 3 3 3 2 1 1 2 2 1 2 2 2 2
9 6 6 9 15 19 17 12 10 11 10 13 12 12 11 13 11 9 12 18 17 18 17 15 15 17 17 17 17 18 19 19 19 19 21 22 22 22 21 21 21 20 18 18 18 17 17 17 17 17 15 14 13 15 15 15 13 13 12 10 10 9 9 8 7 8 7 7 7 7 7 6 6 7 7 6 6 6 6 5 5 5 4 4 3 4 4 3 4 3 3 2 2 2 3 2 2
15 4 2 7 9 13 17 14 12 11 12 16 14 13 13 13 13 14 14 13 15 17 16 14 16 17 16 16 17 17 17 17 18 20 21 22 22 22 22 20 20 19 18 17 17 17 17 16 17 18 17 14 14 16 15 16 16 13 11 11 12 10 9 8 8 8 8 8 8 8 7 6 6 6 7 7 7 7 7 6 6 6 6 4 4 4 3 3 4 4 3 3 2 2 3 3 3
9 13 10 8 10 10 11 13 13 11 17 18 16 16 14 14 14 15 14 15 15 13 12 13 14 15 16 16 16 15 16 17 17 19 20 21 21 21 21 21 21 20 17 18 18 18 18 18 18 19 18 15 15 16 16 17 16 13 12 13 13 12 12 10 9 9 8 8 8 9 8 7 7 7 7 7 8 8 8 7 7 6 6 5 4 4 5 5 5 5 4 3 3 3 3 4 4
12 9 11 9 9 8 9 11 13 14 17 14 17 17 17 17 13 13 13 10 14 18 16 14 14 15 15 14 14 16 17 16 17 17 18 20 20 21 20 21 21 21 19 19 18 18 18 17 18 19 18 17 16 16 16 16 15 14 13 14 14 13 12 10 11 11 10 10 9 9 8 7 7 8 7 7 8 10 8 7 7 7 6 6 6 5 5 5 5 4 3 3 4 4 3 3 4
13 11 11 13 9 9 11 11 14 17 15 10 15 17 16 22 16 8 14 14 12 11 14 13 13 13 14 14 15 14 14 16 16 16 17 19 20 21 22 21 21 21 19 20 20 19 18 18 20 20 19 18 17 16 17 16 15 15 14 14 13 12 12 12 11 11 10 10 9 9 9 8 8 8 8 8 8 9 8 7 7 7 6 6 6 5 5 5 5 4 4 4 4 4 4 4 4
15 14 13 14 12 12 11 12 9 11 14 14 10 15 19 11 16 21 19 11 8 9 11 11 11 11 11 13 14 14 15 16 16 17 18 19 19 20 21 21 21 20 22 21 21 19 17 17 19 20 20 19 17 17 17 17 17 16 15 14 13 12 12 12 11 11 11 9 9 10 10 10 9 9 9 9 8 9 8 8 7 8 7 7 6 6 6 5 5 5 5 5 5 4 4 5 4
14 13 14 13 11 9 11 10 14 13 8 12 18 9 12 15 13 10 16 21 20 14 11 10 12 12 10 10 13 15 16 17 16 17 18 19 20 22 21 21 21 20 22 22 20 19 18 18 19 20 20 20 19 18 16 17 16 18 15 14 13 12 12 11 10 10 10 10 10 10 10 10 9 9 9 8 9 8 9 8 8 8 8 7 7 7 6 6 5 5 5 5 5 4 5 5 5
13 14 12 14 15 8 9 6 10 10 10 11 14 12 2 8 4 1 4 11 16 19 20 18 15 13 13 12 12 14 15 16 17 17 19 20 20 21 20 21 21 21 23 21 22 20 19 18 19 21 21 21 19 19 17 17 17 16 17 16 15 13 11 11 10 9 9 10 10 10 10 10 9 8 8 9 9 9 9 8 8 9 8 8 7 7 7 6 6 6 5 5 6 5 5 6 5
12 13 16 14 10 12 11 11 10 8 9 13 7 11 13 8 8 10 10 9 10 13 17 19 20 18 16 15 14 15 15 15 16 17 18 20 20 21 21 22 21 22 22 23 22 21 21 20 20 21 20 19 20 20 18 17 17 16 17 17 15 14 14 14 12 13 13 11 10 10 10 10 10 8 8 9 9 9 9 9 9 9 9 8 8 8 8 7 6 6 6 6 6 6 6 6 6
7 15 13 12 12 12 10 10 9 11 13 9 10 12 10 12 11 13 18 15 15 16 14 14 16 17 18 16 16 16 16 16 18 19 19 19 21 23 22 20 22 23 24 24 23 22 20 20 21 22 21 22 21 20 19 18 18 17 18 18 16 15 14 14 13 13 12 11 11 10 10 9 10 10 9 8 9 10 10 10 9 9 9 9 9 9 8 8 7 6 6 6 6 6 6 5 6
14 9 12 13 13 15 12 8 14 13 14 10 11 13 14 12 10 4 12 19 18 16 16 16 16 16 16 16 17 18 18 16 16 17 17 18 20 21 22 24 25 24 22 23 23 22 21 20 21 22 23 23 22 19 18 16 18 15 15 16 17 16 15 14 13 12 12 12 13 11 11 10 10 10 9 9 9 10 10 10 10 10 9 10 9 9 8 8 8 7 6 6 7 6 6 7 6
19 15 13 12 10 12 12 13 9 8 12 9 11 13 11 11 10 10 6 11 15 15 15 16 16 16 15 14 15 16 16 15 16 17 18 20 21 23 25 24 24 24 24 23 25 22 24 22 22 21 21 20 20 21 19 19 18 16 15 15 16 16 15 14 13 13 13 13 13 12 12 12 11 10 10 11 10 10 10 10 10 11 11 10 10 10 10 9 8 8 7 7 6 7 7 7 7
17 17 16 10 12 9 10 11 14 12 10 9 7 9 9 9 9 11 9 6 8 10 11 11 10 12 14 14 14 14 16 16 16 16 18 20 21 22 23 23 22 21 20 20 21 23 23 21 21 22 23 23 23 22 21 18 16 17 16 17 17 17 17 14 15 14 13 13 13 12 12 11 11 11 10 11 11 11 10 10 11 10 11 10 10 10 9 8 8 9 8 7 6 7 8 7 7
14 18 17 17 15 16 16 14 12 15 11 8 8 9 1 4 7 10 11 10 9 9 10 10 12 13 12 12 14 14 15 17 17 18 19 19 21 21 21 20 18 19 21 23 22 21 22 23 22 22 21 21 22 21 20 19 18 17 19 18 18 16 16 15 16 15 14 13 13 12 12 11 12 12 11 11 12 11 11 11 11 11 10 10 10 10 10 9 9 9 10 8 8 8 8 8 8
Wind_Direction
158 172 165 165 164 164 179 188 234 195 234 229 265 199 86 255 65 137 113 142 155 143 167 154 154 146 166 143 118 94 64 166 13 204 81 117 136 137 140 140 139 141 139 137 135 136 136 127 128 125 123 123 122 122 122 121 120 120 119 117 117 116 116 117 116 116 115 117 117 118 114 116 118 116 114 110 105 105 107 111 108 112 108 110 105 98 106 104 98 103 106 105 104 103 104 102 100
161 159 161 156 170 177 187 182 281 231 237 250 99 9 74 91 185 135 128 164 68 145 177 146 141 144 145 134 120 111 65 49 55 91 98 120 133 135 139 140 142 141 137 135 136 135 130 125 125 124 123 123 123 124 123 120 120 119 117 115 115 116 114 114 116 117 121 124 124 120 121 122 119 114 112 107 103 109 111 106 110 99 97 92 98 108 105 101 106 106 107 108 108 103 99 100 96
157 155 153 166 141 268 25 205 253 238 225 116 79 53 100 120 78 87 99 128 111 147 151 135 129 144 136 145 150 248 101 83 96 108 111 136 134 138 143 142 140 138 136 137 135 134 130 122 124 123 125 126 126 124 122 120 118 116 115 116 115 115 115 114 115 117 117 117 116 119 124 121 114 113 110 99 99 96 105 105 98 93 92 92 92 95 96 100 103 104 102 104 108 107 102 97 102
154 165 161 172 162 241 198 217 229 289 16 54 90 83 79 87 98 104 104 113 141 149 135 133 145 63 173 141 86 83 112 119 102 125 130 151 142 142 145 143 141 138 137 136 132 129 125 124 123 124 128 129 126 124 121 119 119 118 118 118 118 116 115 114 115 117 118 117 117 117 119 117 114 114 109 106 110 113 105 102 100 93 82 84 83 77 94 101 104 103 101 98 92 95 103 100 104
165 170 182 208 273 210 222 229 290 298 20 29 65 76 90 99 111 119 120 139 145 144 148 145 129 103 57 81 91 120 109 101 119 131 139 139 140 144 146 142 144 139 136 132 130 128 125 118 125 129 131 129 126 124 122 121 119 117 117 116 116 114 114 114 113 114 116 118 118 119 119 117 116 115 111 115 121 120 111 103 94 102 105 98 96 100 101 104 96 102 101 101 102 104 99 101 98
166 168 152 279 231 340 284 244 195 258 44 356 55 77 90 114 135 129 133 141 148 152 145 158 140 151 140 71 32 108 129 150 133 136 142 133 145 146 145 149 143 140 133 135 133 131 131 127 130 133 132 129 125 124 122 120 115 117 113 112 116 113 112 114 115 117 119 119 119 119 118 118 119 117 114 117 120 113 112 105 100 94 98 101 96 99 100 105 108 103 104 103 103 93 92 90 93
161 165 190 216 248 239 262 308 334 348 79 348 45 79 120 137 128 138 137 138 157 146 155 150 131 134 127 121 87 69 51 104 164 145 142 143 143 148 148 150 145 137 138 138 137 131 127 131 132 134 133 129 125 124 121 118 115 113 115 117 116 114 114 114 118 117 114 117 120 121 120 121 120 118 115 112 107 107 104 96 93 95 91 88 91 98 94 88 101 109 103 101 94 95 90 95 97
176 237 176 231 218 207 253 307 291 327 87 345 50 100 139 136 144 146 146 157 154 164 173 148 155 133 84 150 103 95 115 160 129 144 133 144 146 148 153 148 146 142 141 136 136 125 126 134 132 134 132 129 126 123 119 115 116 120 119 119 117 117 118 116 114 123 123 122 120 118 119 120 118 116 113 112 110 101 98 97 95 91 87 86 86 91 103 109 98 98 97 95 87 85 88 89 93
159 266 253 255 252 210 246 265 40 78 68 169 111 54 118 141 158 152 154 160 149 169 165 164 142 107 130 120 88 101 121 120 139 130 142 144 148 152 153 151 147 144 143 141 130 133 135 130 132 135 133 131 127 123 120 117 120 121 123 121 119 121 123 125 125 121 116 116 118 119 119 118 115 113 111 108 106 101 97 97 93 89 89 90 89 89 97 97 95 93 93 87 89 89 92 95 90
189 234 203 294 312 245 251 142 232 78 68 67 73 124 149 154 158 166 160 151 162 157 162 155 133 133 130 109 115 127 121 137 139 138 147 149 149 152 152 151 146 145 145 137 135 137 130 132 132 136 137 131 126 120 116 114 112 128 129 124 126 126 120 116 112 113 115 115 116 116 116 115 113 112 111 111 110 106 108 106 102 94 89 88 87 85 90 96 99 100 95 90 86 86 87 88 92
202 201 263 259 215 248 275 75 54 136 106 113 113 137 158 157 160 165 161 142 151 155 148 154 145 126 129 102 80 93 133 144 146 148 151 150 150 153 150 150 147 148 143 140 139 133 137 140 135 138 137 133 123 117 119 119 127 129 130 124 121 120 118 114 114 112 110 113 112 113 111 111 109 109 110 109 111 113 111 107 100 95 91 86 84 87 90 95 98 99 96 94 89 84 84 86 85
249 222 180 267 289 314 46 354 54 99 130 141 129 153 155 154 174 163 158 146 156 143 152 182 137 145 127 122 113 128 147 150 147 148 153 150 150 153 148 148 149 148 144 142 138 138 142 141 148 141 139 134 123 122 123 126 134 135 132 121 120 117 115 116 113 110 110 110 110 110 112 112 110 109 108 107 108 114 115 105 97 95 91 86 88 94 97 92 96 99 96 90 85 83 82 83 80
246 249 233 262 289 260 25 253 90 21 147 147 130 144 152 153 178 154 152 132 153 153 152 185 117 179 131 118 121 134 158 152 145 150 151 157 151 149 150 147 148 146 146 144 143 140 143 150 147 154 139 137 127 137 133 135 141 139 132 121 120 118 119 117 114 113 112 114 112 113 113 112 111 109 107 105 103 101 104 102 102 99 94 91 92 94 92 94 92 94 94 90 87 84 84 83 79
237 294 306 284 350 275 280 357 116 207 102 96 120 150 163 159 168 161 144 150 147 154 142 128 160 119 107 117 140 150 159 152 147 155 155 156 152 151 150 147 150 147 148 149 143 144 149 153 147 148 148 152 138 139 141 143 142 145 126 124 121 120 119 118 116 115 115 115 118 114 112 111 108 107 104 102 96 92 91 97 98 101 100 102 99 93 96 99 100 99 94 88 83 83 86 88 89
242 252 262 273 283 268 169 265 76 148 98 129 125 157 160 153 151 169 156 153 124 102 119 155 125 180 161 167 157 164 159 156 151 156 156 155 152 152 149 150 150 150 152 150 147 152 152 149 148 146 155 151 135 140 145 147 149 140 130 126 123 124 120 118 119 119 121 118 114 115 117 116 111 107 106 102 101 98 97 98 97 98 100 99 98 98 100 101 108 99 91 93 92 94 95 100 97
240 266 265 268 252 270 118 229 161 149 97 122 139 150 153 131 171 171 152 205 116 128 159 146 198 352 128 185 158 156 156 156 152 160 159 154 154 152 153 152 151 153 154 153 156 154 154 153 146 152 155 152 139 150 140 146 147 141 133 129 127 125 124 122 123 123 121 120 118 123 121 117 117 113 104 104 100 98 94 90 94 97 100 101 99 101 101 106 113 112 99 97 97 92 97 97 99
238 253 248 232 235 224 108 236 272 68 91 115 149 163 165 163 167 145 108 124 151 148 176 123 168 113 139 126 145 146 154 152 155 160 159 158 157 157 158 157 156 156 159 158 160 157 156 154 152 150 156 154 143 150 143 153 148 142 138 131 131 129 127 131 129 131 131 126 128 122 132 127 124 119 116 93 90 98 102 105 98 90 89 93 103 103 107 113 113 106 99 103 108 110 109 108 110
227 223 237 245 283 256 62 21 38 65 115 126 171 172 177 160 169 141 175 165 153 146 142 126 104 128 92 115 142 145 152 156 160 161 162 162 165 160 162 162 161 161 163 161 164 162 158 155 154 157 154 155 150 145 151 152 149 154 140 142 140 138 139 144 150 137 131 127 133 144 130 126 118 112 108 107 90 91 87 83 91 93 91 97 103 113 117 109 108 110 115 118 127 125 130 125 119
212 223 237 260 200 61 9 43 43 355 54 113 166 184 195 158 174 158 188 162 157 164 149 150 128 115 116 134 139 154 157 158 161 166 165 166 169 165 164 162 166 160 163 165 165 167 162 157 159 161 154 155 157 149 141 166 152 152 145 144 139 148 143 152 134 130 129 128 131 129 134 113 113 114 109 112 118 111 109 95 95 93 85 81 81 84 100 104 106 114 123 130 129 144 137 121 128
221 257 236 232 67 87 358 4 32 21 24 145 156 179 212 135 187 157 204 161 170 178 156 159 151 140 142 143 152 156 162 163 164 169 167 168 172 168 165 166 165 166 164 167 164 167 164 163 161 160 156 159 164 160 155 159 150 155 150 151 149 148 152 144 137 134 133 135 130 128 117 113 114 108 113 123 132 127 134 136 137 122 113 114 118 125 128 129 129 120 121 130 145 152 110 115 128
187 234 244 36 41 229 107 129 63 68 339 123 146 151 206 158 190 185 194 177 189 189 171 172 162 148 147 153 157 161 164 166 169 170 170 171 173 170 171 169 166 166 165 164 163 168 168 165 163 159 160 161 171 160 160 154 152 159 152 154 151 155 150 147 140 142 132 129 133 140 126 126 128 130 147 149 135 134 142 136 145 140 129 157 165 149 147 144 143 133 130 170 197 168 141 149 177
248 229 243 295 171 216 111 104 73 48 58 85 139 171 197 157 199 204 203 198 172 195 168 173 151 153 153 158 163 166 167 170 171 173 175 174 174 172 168 174 167 168 165 168 167 167 170 169 167 160 162 166 170 166 165 149 165 159 157 154 153 158 147 150 147 146 142 149 158 127 130 133 142 135 134 127 124 129 127 114 123 126 138 151 198 176 156 168 163 166 164 180 200 156 136 113 91
246 224 245 258 261 284 116 169 101 309 34 106 182 164 137 186 201 209 210 204 61 20 157 159 150 155 155 159 164 168 170 171 173 174 173 175 173 176 171 174 168 176 168 170 168 170 170 171 168 166 162 165 167 173 165 163 171 161 157 160 162 159 154 159 155 144 134 144 137 140 162 139 140 134 131 128 120 125 109 122 113 122 140 156 172 104 116 118 120 162 149 120 67 78 59 44 87
242 255 212 230 245 241 233 262 271 252 248 283 285 103 224 194 223 184 210 220 92 97 137 143 146 151 153 162 170 171 172 174 174 174 174 176 174 176 174 172 171 171 174 167 173 171 172 174 169 172 162 165 168 173 172 172 171 166 157 153 186 146 164 168 153 142 131 151 158 138 162 139 140 126 126 126 123 111 94 97 113 134 130 141 118 128 141 153 126 129 113 154 98 149 137 168 128
229 243 254 264 260 256 254 255 249 250 250 256 264 242 224 210 239 180 209 211 167 138 135 141 149 153 160 162 169 170 172 174 176 175 175 178 177 174 175 175 173 169 178 171 171 173 175 173 172 174 165 167 168 173 175 177 169 175 161 171 175 145 187 168 145 138 160 150 145 161 199 147 139 134 123 115 107 93 110 114 118 102 71 56 140 128 124 116 126 139 160 204 145 138 130 118 128
225 241 248 246 249 248 245 255 253 247 250 244 249 243 230 224 226 242 208 199 158 149 147 147 153 158 164 166 169 170 174 176 175 177 177 176 177 176 178 178 174 175 177 173 170 173 177 173 177 174 171 170 168 178 176 175 172 177 171 173 159 176 182 163 152 169 157 162 157 174 167 238 143 130 118 115 115 109 107 103 100 76 79 90 86 80 93 99 31 57 118 141 52 89 122 110 140
63 244 245 253 255 260 252 258 252 243 248 248 250 247 235 208 212 215 204 181 151 158 155 154 159 164 167 168 172 172 174 177 178 175 174 176 178 180 179 177 177 176 175 176 172 172 174 177 178 175 172 169 171 177 179 175 173 177 173 173 172 182 173 165 179 174 162 173 138 147 171 218 195 123 110 124 117 122 115 103 73 69 98 78 60 76 71 64 111 155 109 94 146 145 115 124 134
254 293 271 252 255 254 255 252 249 239 240 232 239 247 244 226 199 235 150 156 158 164 160 160 165 167 170 171 173 174 177 178 177 178 179 178 179 180 181 179 179 176 177 178 173 171 174 180 178 176 174 172 175 174 177 176 180 177 177 175 181 172 173 185 179 177 173 153 139 162 183 180 284 77 95 111 101 118 94 78 89 48 70 80 47 48 52 78 93 97 118 87 95 120 130 131 146
253 257 268 264 250 246 233 234 230 220 230 212 216 250 236 213 214 211 163 156 168 169 166 167 169 171 171 173 173 176 178 177 179 184 185 183 179 181 181 180 178 176 178 178 170 174 174 180 176 178 175 170 181 181 174 182 180 179 182 184 178 172 184 187 182 181 167 152 158 181 169 180 178 150 123 101 134 103 86 69 75 75 70 41 64 63 74 120 135 154 146 163 149 125 134 126 150
246 247 256 271 261 252 232 221 224 216 216 214 215 251 230 206 202 195 158 168 173 172 171 172 172 173 173 175 176 176 178 178 183 186 186 184 183 184 184 181 180 178 176 178 173 177 172 180 175 179 177 177 183 186 173 182 184 181 183 188 173 191 181 183 188 175 166 161 168 175 179 185 177 146 135 124 254 124 100 96 53 66 64 56 81 80 121 104 86 88 131 158 136 139 117 126 126
225 231 237 248 252 241 213 209 204 216 197 205 206 229 232 176 181 173 165 177 178 177 175 175 174 174 175 177 178 180 181 184 184 185 187 186 185 186 187 183 182 180 177 179 178 176 172 177 176 179 180 179 182 189 180 182 184 184 183 185 175 199 185 193 184 177 171 171 177 162 191 184 177 166 149 154 159 46 167 95 102 100 67 27 74 83 346 84 103 116 126 144 131 133 122 118 113
220 217 219 224 238 232 190 190 201 211 182 203 203 237 230 181 167 159 170 177 181 182 178 178 176 177 177 178 180 183 184 187 187 185 186 187 187 186 187 186 184 183 181 181 176 178 174 176 179 181 178 181 181 188 184 182 185 190 185 183 182 196 194 200 189 182 173 173 182 159 177 190 182 178 172 167 224 187 57 97 102 73 79 59 61 70 314 66 53 57 104 116 91 75 129 134 130
213 227 219 215 214 228 213 185 198 211 193 194 214 220 235 215 144 162 173 179 184 185 182 181 180 179 177 179 181 184 183 187 191 189 186 187 187 187 186 188 185 186 182 181 177 179 177 174 179 185 179 183 181 185 186 184 184 189 195 184 195 191 204 200 187 192 181 177 183 167 162 188 191 182 184 183 231 198 134 143 127 106 89 74 75 72 52 36 14 59 92 78 100 118 305 101 104
207 207 233 224 211 209 229 169 195 202 216 199 204 225 232 177 147 167 176 182 187 192 185 185 182 181 179 179 182 183 185 187 191 190 188 186 185 186 185 186 184 187 182 186 180 180 180 175 179 188 178 182 179 183 187 187 189 187 197 195 198 196 210 210 197 189 199 180 179 172 150 184 183 192 192 189 238 326 26 53 69 94 104 86 72 54 45 23 42 32 81 85 49 346 34 39 96
198 198 214 221 221 218 217 196 190 202 202 229 206 226 226 224 176 172 180 186 191 197 193 188 185 183 180 181 183 184 186 189 192 191 186 185 184 184 184 184 184 186 184 185 181 180 180 177 178 184 182 184 178 182 184 191 190 194 200 204 192 203 202 222 217 202 196 194 191 164 160 189 179 194 193 192 231 201 156 108 58 60 71 95 102 44 43 37 14 16 35 88 51 34 34 32 37
215 211 217 222 213 210 222 200 96 216 202 218 223 221 224 223 217 183 189 190 197 202 196 192 189 186 183 185 185 186 188 191 189 189 189 185 184 183 184 182 184 185 185 185 182 182 182 178 178 179 185 185 176 179 181 191 193 192 195 196 199 200 208 202 212 215 212 202 187 175 167 194 176 194 190 197 211 214 203 138 127 149 105 112 67 37 51 47 13 348 9 32 321 151 111 60 110
270 235 226 224 227 226 213 222 181 172 246 228 222 224 230 228 226 214 190 192 199 203 197 195 191 188 187 190 189 189 189 190 184 185 189 188 186 182 184 181 184 185 186 184 185 185 184 183 179 181 183 183 181 182 184 190 190 190 196 199 200 192 200 200 206 211 211 209 176 208 171 191 184 194 196 201 201 190 255 134 137 133 129 84 56 55 39 33 356 309 342 300 348 312 94 174 100
249 245 230 226 223 227 211 215 194 213 238 225 229 230 221 224 222 223 199 198 200 200 201 197 193 191 190 193 192 190 186 184 179 183 186 186 189 185 183 182 183 184 186 186 186 186 184 186 186 183 181 185 189 187 186 190 192 193 188 194 196 195 191 199 203 207 213 198 180 196 203 210 189 197 203 202 205 207 221 202 174 161 117 106 78 75 112 313 311 282 46 170 199 4 52 3 60
225 239 227 234 223 232 234 211 132 201 222 240 233 235 231 225 223 221 215 201 203 203 206 200 194 193 192 193 194 187 182 186 184 184 185 185 187 186 185 183 184 186 184 186 186 187 185 188 189 184 183 185 191 190 190 192 191 194 196 193 196 193 198 204 209 206 209 218 186 190 201 201 202 206 205 205 207 212 213 218 207 176 145 133 151 140 147 150 266 283 184 240 64 159 82 78 88
225 225 238 228 224 216 214 213 216 222 232 239 230 244 245 237 227 227 219 206 203 207 210 206 197 194 193 191 190 187 186 185 186 184 185 186 186 186 187 186 184 185 184 186 187 188 187 189 188 187 187 188 189 192 196 194 189 187 197 199 192 204 187 193 207 205 210 221 211 192 192 196 201 210 202 203 207 203 206 215 227 203 170 160 165 155 168 179 179 241 218 215 265 211 168 136 153
223 237 233 233 221 223 245 187 201 231 230 243 260 265 257 240 231 221 221 217 212 209 208 208 199 200 198 194 193 191 188 186 186 185 187 185 186 189 189 188 185 186 186 187 188 187 189 187 186 185 185 186 186 187 191 188 181 182 184 182 179 183 175 189 196 205 204 207 220 214 205 191 196 214 201 205 211 197 205 217 221 217 220 207 214 190 179 159 231 220 213 249 233 280 116 121 157
222 221 232 237 234 236 228 249 250 224 230 214 221 247 244 230 229 230 215 211 213 206 203 198 194 194 194 198 196 192 193 189 187 186 186 187 188 186 188 190 190 188 188 188 188 187 188 185 185 184 185 187 189 188 185 183 183 186 185 184 185 190 196 198 202 206 205 203 214 212 210 200 195 203 208 209 207 204 203 211 214 218 209 204 208 240 287 140 181 142 261 238 224 223 335 76 152
229 214 211 232 244 238 246 238 234 241 232 198 208 233 242 225 228 222 225 219 206 203 202 195 189 190 195 199 195 194 192 189 192 189 187 187 187 188 188 191 193 191 188 185 187 187 186 184 183 182 184 187 188 187 185 185 185 193 197 196 195 195 201 205 207 210 215 204 213 206 201 203 199 207 203 204 206 205 209 209 213 215 213 206 193 215 219 236 225 181 179 176 223 141 182 240 223
229 208 198 214 226 234 236 241 237 253 264 238 166 229 250 244 224 225 220 221 206 206 201 197 188 191 196 199 198 195 193 191 188 190 189 189 187 189 190 190 193 194 187 184 186 186 185 184 181 182 183 185 187 185 185 186 189 196 203 202 201 206 207 204 193 198 204 213 205 205 197 201 197 209 213 202 207 205 210 211 212 219 216 217 193 205 221 229 261 189 197 201 144 167 180 234 268
228 214 214 218 221 228 234 240 242 244 249 249 229 213 243 241 237 239 231 224 206 210 212 197 192 192 197 199 200 196 194 191 188 189 189 190 189 192 191 191 192 192 189 187 186 184 182 182 180 181 184 184 185 186 186 189 194 199 200 198 203 207 210 206 192 191 193 198 203 200 200 201 196 202 215 211 206 212 207 215 211 217 216 214 202 220 209 203 216 222 202 196 185 169 200 193 235
227 224 200 226 231 229 231 234 240 241 242 243 235 217 235 240 226 225 220 231 210 211 212 200 195 193 196 200 200 196 192 191 193 192 191 192 191 191 191 190 189 192 191 188 185 181 180 179 181 181 184 185 182 184 186 188 194 199 197 200 202 199 199 202 200 188 190 188 199 201 200 205 206 203 207 216 216 214 211 212 214 214 219 214 213 220 225 207 206 220 221 213 201 194 177 200 207
238 229 235 226 220 222 218 229 235 243 243 238 233 232 236 252 227 220 212 214 224 223 209 206 196 196 195 200 198 193 191 192 193 194 194 193 192 191 189 189 190 190 189 187 187 184 180 180 181 183 184 183 182 184 185 188 192 196 199 200 200 198 193 193 192 191 187 188 195 201 201 201 211 216 214 205 214 214 213 213 219 213 220 213 210 215 223 216 202 203 208 204 209 208 189 197 216
219 225 217 230 223 211 214 216 214 234 241 234 228 234 229 243 234 224 216 201 218 224 220 202 195 196 194 195 198 196 193 192 192 193 194 192 192 192 190 191 189 189 189 188 189 185 183 181 180 182 183 182 182 184 186 189 193 196 198 199 201 199 194 192 193 192 189 191 194 197 201 202 205 212 222 220 207 209 209 214 219 220 216 217 210 213 218 221 228 198 184 192 201 210 212 203 216
220 219 208 216 201 191 207 199 212 221 236 225 223 224 235 234 245 233 223 213 215 221 222 203 200 199 194 193 195 194 193 190 192 193 191 191 192 191 191 190 188 188 190 189 189 188 185 183 181 181 184 183 182 183 185 190 194 195 197 199 201 200 200 198 196 197 192 194 194 196 195 200 198 206 211 220 214 209 203 210 216 217 215 218 224 216 214 221 233 223 190 202 204 201 205 210 208
208 208 203 207 201 195 206 208 224 235 228 233 234 222 241 251 246 232 245 245 229 202 211 222 219 209 200 194 191 189 191 192 194 194 194 193 191 191 191 190 187 188 190 190 190 189 186 185 183 183 183 183 182 186 188 194 202 203 196 198 199 199 202 201 201 200 198 197 195 198 201 201 201 204 206 212 218 209 208 206 212 216 216 219 221 223 225 223 220 229 207 207 209 207 209 211 218
208 206 211 212 216 199 203 208 211 223 239 208 211 238 237 220 232 228 226 231 239 233 222 216 226 228 221 204 191 191 191 196 194 194 195 194 192 190 190 189 188 189 190 190 189 189 186 187 184 183 182 182 183 185 187 193 201 206 201 196 197 197 200 202 204 204 201 198 199 199 202 207 208 204 206 203 210 212 210 207 209 217 215 219 219 219 220 222 222 225 227 217 225 205 209 211 214
200 203 216 219 218 225 237 207 226 225 222 225 193 209 140 202 95 130 229 220 224 231 235 236 231 225 222 220 202 196 196 197 194 195 197 196 192 190 190 190 189 189 189 190 189 188 188 187 185 184 182 181 183 185 188 192 198 201 203 200 196 197 199 201 201 201 201 200 200 202 199 205 213 206 203 201 201 207 206 209 207 215 218 217 219 220 220 221 215 222 222 221 223 216 209 210 218
178 199 209 218 214 230 239 257 260 283 268 241 210 203 232 263 249 221 221 227 229 221 223 224 227 227 223 223 214 203 202 198 195 196 198 195 191 191 193 191 190 188 188 190 189 188 188 185 184 184 183 181 183 185 188 192 194 195 198 200 194 196 199 199 199 198 200 198 201 202 203 205 204 208 201 198 200 200 206 209 212 214 212 217 220 221 220 219 216 219 218 220 226 224 211 217 220
220 202 210 206 227 240 238 240 217 227 236 228 209 224 219 212 245 214 221 223 223 225 225 224 221 219 221 219 214 209 205 201 197 197 197 193 192 192 193 194 193 192 190 187 186 186 187 187 185 183 182 183 183 183 187 191 193 195 199 198 195 200 203 202 201 199 199 199 199 202 207 202 204 203 204 204 202 201 204 206 214 217 215 213 218 220 219 218 216 222 219 220 223 230 220 222 220
251 248 173 206 187 213 217 243 230 220 227 238 225 225 234 221 223 184 207 214 220 223 222 220 218 216 216 213 209 207 205 203 197 196 194 195 194 192 193 194 195 193 190 188 185 185 186 188 188 186 186 184 183 185 187 191 193 196 197 193 194 199 203 204 201 199 197 200 201 199 205 204 201 200 198 203 202 203 203 205 211 216 214 216 216 219 217 218 215 225 223 220 213 216 222 224 225
239 263 261 214 239 216 207 212 247 247 249 233 227 212 230 219 234 228 214 205 214 219 217 217 221 219 214 212 208 205 203 200 196 194 195 196 195 194 194 195 194 191 189 187 186 187 188 188 187 189 187 184 182 184 184 189 191 192 193 192 195 198 199 200 198 195 198 200 203 202 202 201 201 197 200 198 202 206 206 211 211 215 219 216 217 218 217 216 217 221 226 227 212 205 217 225 233
205 223 227 231 235 223 227 217 222 231 242 241 248 221 218 219 213 229 215 210 216 222 222 219 219 215 212 211 211 207 201 198 197 195 195 198 197 197 196 195 194 192 190 191 188 189 188 187 188 188 186 186 185 185 185 188 188 193 190 191 192 195 197 198 198 195 198 199 200 202 201 203 196 203 199 199 202 207 210 211 216 215 219 220 216 218 216 215 216 218 221 226 234 218 218 225 227
224 204 224 225 212 207 211 225 214 228 234 239 234 239 265 117 183 211 223 227 229 229 242 239 230 224 218 213 212 211 201 198 197 196 198 197 197 198 195 191 191 191 189 191 192 190 188 189 189 188 188 189 187 185 186 184 187 188 191 191 190 191 194 197 197 193 198 199 199 199 199 199 200 199 201 202 202 205 207 209 213 214 216 219 216 217 221 216 218 219 218 216 218 219 221 226 230